Wind_Speed
10 6 3 4 5 5 4 4 4 7 2 4 5 7 7 9 11 11 11 11 12 15 17 18 20 22 20 21 24 25 26 28 27 30 31 33 32 33 32 29 27 26 24
11 10 12 12 11 9 7 5 3 1 1 3 4 7 9 10 11 10 11 13 15 26 28 26 26 23 23 24 24 25 27 28 27 29 30 33 34 31 35 37 34 33 29
11 10 11 10 9 9 8 5 4 3 3 3 5 6 9 11 12 13 18 20 22 21 27 26 26 23 23 23 23 24 25 29 29 27 30 30 31 30 30 28 34 31 30
8 9 8 9 8 8 7 6 5 4 5 7 5 10 9 13 17 18 20 22 25 22 20 21 21 22 22 22 22 20 22 21 28 27 27 30 28 22 30 36 32 28 32
7 8 7 7 7 7 6 5 5 7 8 10 13 12 13 16 19 18 19 19 20 21 22 22 22 23 20 18 17 17 14 14 17 15 23 29 25 21 15 26 28 33 24
6 5 5 4 5 6 6 7 8 9 11 11 12 13 15 15 17 18 20 19 21 22 22 22 21 19 16 14 15 17 15 16 17 18 20 21 21 21 19 17 24 20 23
6 5 4 4 4 6 8 9 11 13 14 14 14 15 16 17 18 20 21 23 24 25 24 21 18 15 16 16 10 7 15 21 19 17 14 11 14 14 13 12 11 14 21
3 3 4 7 9 11 12 13 14 16 17 18 18 17 18 19 20 20 23 25 25 24 21 18 15 16 15 8 10 16 19 17 12 9 7 7 7 8 8 8 10 13 15
5 6 8 10 12 13 14 14 15 19 21 21 19 18 19 19 21 22 24 25 24 23 18 15 16 10 9 13 14 13 17 16 12 11 10 9 10 10 10 10 13 11 17
7 9 13 14 14 16 15 16 19 20 19 18 18 17 19 21 22 22 23 23 21 19 18 17 15 11 11 16 21 18 13 15 15 14 14 14 15 15 15 15 15 15 15
10 13 15 14 15 15 15 19 20 19 18 17 17 19 21 21 19 19 21 19 17 16 15 13 11 14 18 21 23 16 18 15 16 16 17 18 18 19 20 21 22 23 24
13 15 16 14 18 15 20 20 17 14 15 18 20 21 20 19 19 20 17 16 16 15 15 17 19 16 20 16 15 15 14 14 16 17 19 21 22 23 23 22 22 23 23
17 18 17 21 19 18 19 15 15 16 19 21 21 20 19 17 18 19 19 17 17 17 20 20 21 18 16 19 18 17 17 18 20 21 22 23 22 23 22 22 23 23 24
18 16 20 23 20 16 13 15 17 19 20 19 19 19 18 16 16 13 13 14 16 18 20 20 20 19 19 18 18 15 17 19 20 21 22 23 23 23 23 23 22 23 24
22 20 22 20 17 14 15 17 18 20 20 18 18 18 15 15 13 14 15 17 18 19 19 19 19 19 19 20 21 23 23 21 23 23 24 24 24 27 30 28 26 23 24
19 18 17 17 17 17 19 19 19 20 18 17 19 18 15 15 15 16 16 18 19 19 18 18 19 19 19 22 26 30 30 26 23 24 24 24 25 25 24 26 29 28 25
15 15 16 17 18 20 20 20 21 21 21 20 19 17 15 16 16 16 17 17 18 18 19 19 19 19 20 24 28 33 33 26 23 23 24 25 25 25 24 23 24 28 25
17 16 18 20 21 23 22 23 23 24 25 25 20 17 15 16 16 16 17 18 18 19 19 19 19 20 20 25 30 34 32 23 23 23 24 25 26 25 26 25 24 24 22
15 19 21 22 24 25 25 25 27 27 27 25 22 18 18 16 17 17 17 18 18 20 20 20 19 21 22 24 29 30 25 22 24 23 22 23 24 24 24 24 26 25 23
19 22 22 24 26 27 27 28 30 30 28 25 19 18 19 17 15 16 17 17 19 21 22 22 24 23 25 22 26 26 25 25 24 23 22 22 23 25 22 23 23 24 24
22 23 25 25 28 28 29 30 31 31 28 24 20 20 17 15 14 14 16 19 20 22 20 26 26 22 21 23 24 23 22 25 26 25 24 22 23 14 16 22 28 26 25
25 26 26 28 29 29 29 31 32 30 27 22 18 16 21 9 13 15 17 19 20 20 19 24 24 20 22 21 22 23 26 24 26 26 23 22 25 27 25 21 17 19 19
28 28 28 28 28 28 28 31 30 28 25 25 23 20 13 12 13 13 17 18 19 17 21 19 20 21 20 20 20 25 24 24 24 21 23 20 17 21 13 13 15 11 8
29 28 27 28 29 29 30 29 27 25 21 18 17 15 12 12 13 14 16 17 16 17 16 19 19 20 21 21 20 24 24 24 21 21 13 15 15 11 12 12 10 9 9
27 27 27 28 29 31 30 28 24 17 17 17 15 14 12 11 12 12 14 14 14 20 21 18 17 19 20 20 23 23 24 22 21 14 13 13 13 12 11 11 11 10 10
29 29 30 30 31 30 28 24 17 14 16 15 13 12 11 12 14 11 11 14 18 19 21 22 22 25 19 20 20 20 19 17 15 10 12 12 13 14 14 14 13 12 13
Wind_Direction
107 112 116 90 86 80 94 133 172 214 245 261 272 275 274 274 284 282 293 306 295 305 308 306 302 298 296 289 284 286 284 282 280 280 277 273 268 262 257 255 253 252 248
109 108 89 81 80 80 80 76 88 36 349 312 301 292 285 291 288 299 289 306 294 313 312 305 305 296 292 285 282 281 282 280 277 274 275 276 274 263 258 252 247 244 243
114 94 77 75 71 70 74 78 76 52 19 357 322 314 312 302 299 288 303 301 305 304 305 309 301 292 291 289 285 280 279 281 280 275 273 276 272 276 266 261 246 247 244
91 81 81 79 76 77 76 70 63 31 5 330 335 329 320 310 301 301 297 296 305 307 305 307 301 293 292 290 290 288 278 280 282 283 273 273 279 286 282 271 275 253 240
70 71 76 76 73 67 56 41 10 349 342 334 325 320 308 303 300 302 307 310 306 302 307 305 301 298 299 294 293 283 271 273 268 274 265 257 266 282 284 278 270 266 257
69 73 75 67 43 29 10 1 347 332 323 323 318 311 311 312 311 310 311 309 304 306 306 304 296 296 295 287 265 280 289 296 296 292 292 290 287 280 288 284 270 260 261
68 67 52 12 341 335 337 335 325 323 322 317 315 316 312 310 311 313 310 311 312 311 310 305 304 299 279 280 274 271 299 305 301 289 295 303 300 299 299 303 305 303 283
51 22 345 331 329 328 321 318 322 322 318 315 311 311 312 311 312 312 313 314 313 311 312 309 296 284 284 284 314 309 315 313 300 309 304 292 293 299 297 301 306 304 293
324 326 335 331 326 322 321 316 319 317 315 311 309 309 309 311 312 314 320 320 320 318 319 302 293 297 272 277 278 296 303 290 280 283 281 281 276 271 268 276 271 268 289
312 321 320 319 318 318 320 316 313 311 312 313 311 309 311 312 314 322 322 321 322 316 308 301 302 293 285 283 295 306 289 278 280 288 288 286 287 285 279 272 262 254 257
318 320 319 315 311 308 309 312 313 310 312 312 315 315 314 314 318 320 320 318 317 314 314 311 300 282 288 290 307 299 291 288 287 285 284 284 288 287 286 282 276 274 270
317 315 317 323 317 308 311 313 313 316 315 315 315 314 313 314 313 316 309 310 310 309 308 298 288 288 297 312 314 308 307 300 297 294 292 290 289 287 284 280 276 274 273
321 321 317 314 312 310 307 308 310 313 315 317 317 316 313 308 308 307 309 300 317 318 315 311 311 313 309 308 302 298 294 293 291 288 286 284 285 285 283 280 278 277 276
318 313 318 315 310 305 303 306 308 313 315 314 316 315 313 314 315 323 327 316 315 313 310 307 304 302 303 301 299 288 298 296 294 289 286 284 283 283 283 280 278 277 276
321 317 313 311 308 304 305 306 308 313 314 315 315 317 312 312 310 309 313 313 311 310 309 305 304 304 303 300 282 288 304 303 298 292 289 287 283 277 277 282 279 277 276
322 313 313 310 307 307 305 305 308 312 312 310 312 309 304 308 309 309 311 312 311 311 309 308 306 305 304 296 294 297 303 304 300 295 292 289 287 288 289 288 287 283 276
314 310 305 305 304 307 306 306 309 313 311 307 307 306 302 303 305 309 311 312 312 312 310 310 308 306 305 300 297 296 300 302 301 297 293 291 287 288 287 283 279 283 280
308 303 307 307 307 307 303 308 311 312 311 306 297 297 293 297 303 307 311 313 314 314 314 312 310 307 306 302 297 298 305 304 299 296 293 290 286 283 280 285 281 281 276
305 308 310 310 311 308 304 306 309 308 310 308 307 300 292 293 300 305 311 314 313 314 313 312 310 307 300 294 296 303 311 306 299 299 295 293 290 288 289 284 284 283 279
308 308 308 310 311 310 309 306 307 307 305 303 296 295 288 285 291 300 308 311 311 312 311 300 310 306 312 308 308 315 317 311 310 306 303 299 295 291 286 282 285 284 283
307 309 308 311 312 313 311 308 306 304 306 307 297 292 282 282 290 298 309 310 312 315 307 309 311 312 306 309 313 306 310 313 308 307 305 303 297 290 293 288 288 287 284
314 315 315 312 312 315 315 311 310 314 316 309 300 289 284 281 293 298 308 310 313 312 311 310 312 313 312 316 313 308 314 312 310 308 306 301 294 298 300 299 297 289 285
316 314 312 313 315 317 318 316 314 311 304 304 296 291 297 280 284 300 308 312 314 313 310 315 315 316 319 317 314 311 316 317 316 314 301 308 304 313 320 319 315 318 315
316 314 315 316 316 319 319 316 314 309 310 310 310 305 297 289 290 299 307 309 310 310 317 318 317 317 317 320 317 319 322 323 321 318 328 325 322 330 339 332 328 319 308
318 317 316 314 315 318 318 317 315 310 311 313 311 309 296 291 292 298 306 305 305 307 318 320 317 318 320 316 320 322 322 325 326 340 340 330 341 351 349 350 357 352 339
317 315 315 314 315 316 316 314 310 307 313 311 312 304 297 291 288 301 304 308 310 314 324 327 327 329 319 321 324 325 329 333 341 357 342 349 355 358 358 357 360 357 355
Height
1530 1536 1539 1539 1540 1541 1543 1544 1546 1544 1546 1547 1548 1547 1547 1547 1545 1544 1541 1540 1538 1534 1532 1531 1529 1525 1521 1519 1516 1513 1511 1509 1508 1505 1500 1497 1494 1493 1494 1493 1492 1493 1491
1536 1540 1539 1538 1540 1542 1543 1545 1545 1545 1546 1546 1546 1544 1543 1544 1543 1542 1539 1537 1532 1529 1526 1524 1521 1520 1516 1512 1509 1507 1504 1502 1501 1499 1496 1489 1487 1484 1483 1482 1481 1481 1484
1539 1540 1540 1541 1542 1543 1545 1546 1546 1545 1543 1543 1544 1543 1543 1542 1540 1539 1537 1535 1530 1525 1519 1516 1512 1512 1510 1506 1504 1502 1499 1495 1493 1493 1491 1486 1479 1478 1476 1476 1473 1475 1475
1540 1541 1543 1544 1544 1544 1545 1545 1545 1545 1543 1541 1541 1540 1540 1539 1538 1534 1531 1526 1524 1521 1517 1513 1509 1506 1503 1500 1497 1496 1493 1490 1487 1486 1485 1481 1477 1472 1468 1469 1469 1468 1469
1541 1543 1544 1545 1545 1545 1545 1545 1545 1544 1542 1540 1538 1537 1536 1535 1532 1528 1524 1520 1520 1517 1513 1509 1505 1500 1498 1495 1491 1487 1485 1483 1480 1477 1473 1471 1471 1471 1466 1460 1464 1465 1465
1543 1544 1545 1545 1546 1546 1546 1545 1544 1544 1542 1540 1537 1534 1531 1528 1526 1523 1519 1517 1514 1511 1507 1503 1498 1494 1491 1489 1485 1481 1479 1476 1474 1473 1471 1470 1468 1465 1464 1460 1457 1456 1457
1544 1545 1546 1546 1547 1547 1545 1544 1543 1542 1540 1537 1534 1532 1529 1526 1523 1520 1516 1512 1508 1504 1500 1496 1493 1491 1485 1482 1480 1478 1477 1474 1471 1469 1468 1466 1465 1463 1461 1460 1458 1455 1451
1545 1545 1546 1546 1545 1544 1543 1542 1540 1538 1536 1533 1531 1528 1526 1523 1520 1516 1512 1508 1503 1498 1494 1490 1488 1485 1483 1480 1477 1475 1474 1471 1469 1466 1466 1465 1463 1462 1460 1459 1457 1455 1452
1545 1544 1544 1544 1543 1543 1541 1539 1537 1534 1532 1529 1526 1524 1522 1519 1516 1510 1506 1502 1498 1494 1490 1487 1484 1481 1479 1477 1475 1473 1471 1468 1467 1464 1463 1462 1461 1459 1457 1455 1454 1453 1451
1543 1543 1543 1543 1542 1540 1538 1536 1534 1531 1529 1526 1523 1521 1518 1515 1510 1505 1502 1498 1495 1493 1487 1484 1481 1478 1476 1475 1473 1471 1468 1465 1463 1461 1459 1457 1456 1455 1452 1451 1450 1449 1447
1542 1541 1541 1540 1539 1537 1535 1533 1531 1528 1525 1523 1521 1517 1514 1510 1507 1503 1500 1496 1492 1490 1486 1483 1479 1476 1474 1471 1469 1467 1464 1462 1460 1459 1456 1454 1453 1452 1450 1449 1447 1445 1443
1540 1540 1539 1538 1536 1534 1532 1530 1528 1525 1522 1520 1516 1513 1510 1507 1504 1501 1496 1492 1489 1487 1482 1478 1475 1473 1470 1468 1466 1463 1461 1458 1456 1455 1453 1451 1449 1447 1445 1443 1441 1439 1438
1538 1538 1537 1535 1532 1530 1528 1527 1525 1522 1520 1517 1513 1510 1506 1502 1499 1496 1490 1488 1486 1483 1480 1477 1473 1470 1468 1466 1464 1461 1458 1456 1453 1450 1448 1445 1443 1441 1439 1437 1435 1434 1432
1536 1535 1533 1532 1529 1527 1525 1523 1522 1519 1516 1512 1509 1506 1502 1499 1495 1492 1489 1487 1483 1481 1478 1474 1471 1468 1465 1462 1460 1457 1454 1450 1448 1445 1442 1439 1437 1434 1433 1431 1429 1428 1426
1533 1532 1532 1530 1528 1525 1523 1521 1518 1515 1512 1508 1505 1502 1499 1496 1492 1489 1486 1483 1480 1477 1474 1471 1468 1465 1461 1458 1454 1451 1447 1444 1441 1438 1435 1432 1430 1427 1426 1424 1422 1420 1419
1533 1533 1530 1528 1527 1524 1521 1517 1514 1511 1507 1503 1500 1497 1495 1492 1489 1486 1482 1479 1476 1473 1470 1467 1464 1461 1458 1452 1449 1445 1441 1438 1434 1431 1428 1426 1423 1421 1418 1415 1413 1412 1411
1532 1530 1528 1525 1523 1519 1516 1513 1509 1506 1503 1500 1496 1493 1490 1488 1485 1482 1479 1476 1473 1470 1467 1463 1460 1457 1454 1448 1444 1440 1436 1431 1428 1426 1422 1419 1416 1414 1412 1410 1406 1404 1402
1530 1527 1524 1521 1518 1515 1512 1509 1506 1502 1499 1494 1490 1488 1486 1483 1480 1478 1476 1473 1470 1467 1463 1459 1456 1453 1450 1443 1437 1433 1429 1426 1422 1420 1416 1413 1409 1406 1403 1401 1399 1398 1396
1526 1524 1521 1519 1515 1512 1508 1504 1501 1497 1494 1490 1487 1484 1482 1479 1477 1475 1472 1469 1466 1462 1459 1455 1451 1448 1443 1438 1432 1428 1423 1420 1416 1412 1409 1406 1402 1399 1397 1395 1392 1390 1389
1524 1521 1517 1515 1511 1507 1504 1499 1495 1491 1487 1483 1480 1479 1478 1475 1472 1470 1468 1465 1462 1458 1454 1449 1446 1441 1436 1433 1428 1423 1419 1414 1410 1407 1403 1400 1396 1393 1391 1388 1386 1383 1383
1520 1517 1513 1509 1507 1503 1498 1494 1489 1485 1481 1477 1475 1473 1471 1469 1468 1466 1464 1461 1457 1454 1448 1444 1441 1437 1432 1428 1424 1419 1415 1411 1405 1401 1397 1394 1390 1385 1383 1382 1380 1377 1374
1515 1512 1509 1506 1503 1500 1495 1490 1484 1480 1476 1472 1470 1466 1464 1462 1463 1462 1459 1457 1453 1449 1444 1440 1436 1433 1428 1425 1420 1415 1411 1406 1401 1396 1392 1388 1384 1381 1378 1375 1372 1370 1368
1512 1509 1506 1502 1499 1496 1492 1486 1481 1476 1472 1469 1465 1461 1460 1459 1459 1457 1455 1452 1450 1445 1441 1437 1433 1429 1425 1421 1417 1410 1406 1401 1396 1392 1387 1383 1379 1376 1373 1372 1369 1366 1365
1509 1506 1502 1498 1494 1491 1487 1482 1478 1472 1468 1464 1462 1459 1457 1456 1455 1454 1452 1449 1446 1442 1438 1435 1430 1426 1422 1417 1412 1406 1401 1396 1392 1387 1383 1381 1377 1374 1372 1369 1367 1365 1363
1506 1503 1499 1494 1490 1486 1482 1478 1472 1468 1465 1462 1459 1456 1455 1453 1451 1450 1449 1446 1443 1439 1435 1432 1428 1423 1418 1414 1409 1404 1398 1393 1389 1384 1382 1379 1376 1374 1371 1369 1366 1364 1362
1503 1497 1493 1489 1484 1481 1477 1472 1468 1465 1461 1458 1456 1454 1452 1451 1448 1447 1445 1442 1439 1435 1431 1427 1423 1420 1415 1410 1405 1401 1396 1391 1388 1385 1382 1380 1377 1374 1372 1368 1366 1364 1361